EUTELSAT QUANTUM

Last updated on Sat Jun 21 2025 00:02:47 GMT+0000 (Coordinated Universal Time)

1 49056U 21069B 25171.58345545 .00000137 00000+0 00000+0 0 9996 2 49056 0.0174 34.5570 0001314 68.0010 64.2105 1.00272189 14302
UTC large
Height (km)
Speed (km/s)
/
Latitude / Longitude
Inclination (degrees)
Orbital Period (minutes)
Azimuth
Elevation
Range (km)
Doppler Factor

Next 0 passes for location: London (51.5072 / 0.1276)

Sorry there are no passes over London.